カタログに戻る

STARLINK-6229

運用中通信VLEO
NORAD 57093·PAYLOAD·🇺🇸 United States

打ち上げ Jun 22, 2023 から Vandenberg Space Force Base

Loading…

次のパス (今後24時間)

TLE

最新Source: CelesTrak SupGP

元期: Sep 15, 2026, 02:20 UTC

1 57093C 23088AX  26258.09770833  .00040963  00000+0  14837-2 0  2589
2 57093  43.0002 106.3861 0001381 266.9543 269.3576 15.27558047    11

AllMySatでSTARLINK-6229をリアルタイム追跡

Download on the App Store